Location: Elsmere
(42.6217°N, 73.8182°W)
Time: 00:14:04
(UTC+00:00)

Daily predictions for brighter satellites

Satellite Brightness Start Highest point End
(mag) Time Altitude Azimuth Time Altitude Azimuth Time Altitude Azimuth
ERS-2 3.1 00:05:04 10° N 00:08:36 48° WNW 00:12:07 10° SSW
NOSS 2-1 (C) 4.3 00:04:49 10° NW 00:10:02 88° NE 00:17:28 10° SE
Cosmos 1980 Rocket 2.8 00:04:41 10° SW 00:10:14 57° WNW 00:15:51 10° NNE
Cosmos 44 4.2 00:04:57 10° NW 00:10:16 55° WSW 00:15:28 10° SSE
Cosmos 1707 Rocket 3.5 00:07:35 10° N 00:12:01 89° E 00:16:23 10° S
Cosmos 1302 Rocket 3.8 00:08:21 10° S 00:13:30 73° ESE 00:18:42 10° NNE
Cosmos 1633 Rocket 2.9 00:10:13 10° S 00:14:36 72° E 00:19:01 10° NNE
NOSS 2-1 (D) 4.4 00:10:55 10° NW 00:16:09 84° WSW 00:23:35 10° SSE
Cosmos 968 Rocket 3.8 00:13:08 10° N 00:18:10 43° ENE 00:19:23 37° E
Cosmos 2322 Rocket 2.5 00:14:40 10° S 00:19:49 39° ESE 00:21:05 34° ENE
Cosmos 2227 4.1 00:17:00 10° NNW 00:22:47 77° ENE 00:26:35 22° SSE
FALCON 9 DEB 4.5 00:20:50 10° W 00:23:40 29° NNW 00:24:24 26° N
Cosmos 1867 4.3 00:18:44 10° SW 00:24:01 53° NW 00:29:23 10° NNE
USA 305 4.0 00:21:33 10° W 00:25:36 40° NNW 00:27:36 25° NNE
CZ-4 R/B 4.0 00:26:06 10° SW 00:29:03 21° W 00:32:02 10° NW
USA 307 4.1 00:29:34 10° W 00:33:34 38° NNW 00:35:12 27° NNE
Meteor 1-20 Rocket 4.3 00:28:15 10° SSW 00:33:42 72° W 00:39:10 10° N
ERBS 3.7 00:30:44 10° SW 00:32:35 29° SSW 00:32:35 29° SSW
Resurs 01 Rocket 4.0 00:37:17 12° NNE 00:37:17 12° NNE 00:37:38 10° NNE
SL-16 R/B 2.0 00:33:42 10° SSW 00:39:20 73° ESE 00:43:30 19° NNE
USA 306 4.2 00:35:57 10° W 00:39:53 34° NNW 00:41:16 27° NNE
Cosmos 1515 4.1 00:39:06 10° N 00:42:10 55° NNW 00:42:10 55° NNW
USA 308 4.3 00:40:00 10° W 00:43:54 34° NNW 00:45:05 28° N
SeaSat 1 4.5 00:39:55 10° N 00:44:00 27° NW 00:48:05 10° WSW
Ariane Rocket 2.9 00:43:57 63° E 00:44:11 63° ENE 00:49:15 10° N
Meteor 1-19 Rocket 4.2 00:40:06 10° N 00:46:09 89° E 00:50:03 22° S
Cosmos 1470 Rocket 3.5 00:42:24 10° S 00:46:53 90° ENE 00:51:23 10° N
MOS 1 4.2 00:47:37 54° SE 00:48:49 70° ENE 00:54:29 10° N
DMSP B5D2-2 4.3 00:44:28 10° N 00:49:41 68° WNW 00:54:51 10° SSW
SJ-6B 3.3 00:51:03 58° NNW 00:51:03 58° NNW 00:54:26 10° NNW
Cosmos 1271 Rocket 4.5 00:50:01 10° NNW 00:53:20 30° W 00:56:23 11° SSW
USA 234 4.1 00:51:25 18° NE 00:56:01 46° NNW 01:02:10 10° W
IRS-1A Rocket 4.1 00:56:00 55° SSE 00:57:20 85° ENE 01:02:59 10° NNW
Cosmos 2263 Rocket 2.8 00:52:44 10° NNW 00:58:08 53° WSW 01:01:17 24° S
Cosmos 2154 Rocket 4.4 00:55:47 10° SSW 01:01:56 62° W 01:08:06 10° N
Okean 1 4.2 00:58:18 10° NNW 01:01:42 47° WNW 01:01:42 47° WNW
Cosmos 1461 3.6 00:58:05 10° SW 01:02:45 60° NW 01:03:13 57° NNW
GP-B 3.5 01:02:28 57° WSW 01:02:51 60° W 01:07:15 10° N
Nadezhda 3 Rocket 4.3 00:57:34 10° NNW 01:03:51 66° W 01:10:09 10° S
Meteor 1-14 Rocket 4.2 01:00:04 10° SSW 01:05:41 81° W 01:11:17 10° N
Cosmos 44 Rocket 4.3 01:12:39 10° NNW 01:16:12 41° N 01:16:12 41° N
Meteor 2-4 Rocket 3.8 01:12:56 10° NNW 01:18:17 76° NNW 01:18:17 76° NNW
Cosmos 1844 Rocket 3.9 01:30:48 10° NNW 01:33:48 32° N 01:33:48 32° N
Cosmos 2322 Rocket 3.8 01:58:56 10° WSW 02:03:06 31° WNW 02:03:06 31° WNW
SL-16 R/B 4.5 02:19:58 10° W 02:24:02 20° NW 02:25:36 18° NNW
NOSS 3-1 (C) 4.3 08:41:49 38° N 08:41:49 38° N 08:45:59 10° NNE
SeaSat 1 3.6 08:36:21 10° SE 08:40:56 40° NE 08:41:01 40° NE
Cosmos 2082 Rocket 2.4 08:55:33 66° NNE 08:55:33 66° NNE 09:00:26 10° NNE
ATLAS CENTAUR R/B 4.0 08:53:25 14° NNE 08:54:41 16° NE 08:57:13 10° E
FENGYUN 3A 4.5 08:49:32 10° NNE 08:54:48 48° E 08:56:55 32° SSE
Meteor 2-8 Rocket 4.4 08:55:53 81° NNE 08:55:53 81° NNE 09:01:43 10° N
Cosmos 1980 Rocket 2.2 09:02:29 65° N 09:03:17 78° ENE 09:08:58 10° SSE
Iridium 4 Rocket 3.8 09:03:13 48° SE 09:04:25 63° E 09:09:14 10° N
Meteor 2-3 Rocket 3.7 08:59:38 10° N 09:05:22 80° E 09:11:07 10° SSE
Cosmos 2322 Rocket 4.4 09:07:55 10° N 09:12:26 24° NE 09:16:55 10° ESE
USA 229 DEB 3.8 09:16:41 50° NW 09:16:53 50° NW 09:23:33 10° NNE
USA 229 3.8 09:16:46 50° NW 09:16:59 50° NW 09:23:38 10° NNE
Cosmos 1244 Rocket 4.4 09:10:49 10° N 09:17:00 90° E 09:23:14 10° S
Cosmos 1833 Rocket 3.8 09:19:26 29° NNW 09:19:26 29° NNW 09:22:59 10° N
Cosmos 1461 4.1 09:28:43 33° SSE 09:28:43 33° SSE 09:31:06 10° SSE
Cosmos 1766 Rocket 4.3 09:22:55 10° N 09:29:36 30° S 09:31:52 10° S
CZ-2C R/B 3.4 09:23:06 10° N 09:26:01 32° NNW 09:26:01 32° NNW
Meteor 2-15 Rocket 4.4 09:22:56 10° S 09:28:59 88° E 09:35:11 10° N
SL-16 R/B 3.5 09:27:23 10° NNW 09:32:43 40° ENE 09:38:01 10° SE
NOSS 3-1 (A) 3.7 09:33:11 41° NW 09:33:30 42° NW 09:39:31 10° NNE
Cosmos 1048 Rocket 4.0 09:34:33 54° WNW 09:34:33 54° WNW 09:39:24 10° NNE
Lacrosse 5 4.0 09:34:27 13° NNW 09:36:25 16° N 09:39:29 10° NE
Cosmos 494 Rocket 3.8 09:37:05 54° SW 09:38:08 71° WNW 09:43:19 10° NNE
X-37B 1.7 09:40:27 41° NE 09:40:27 41° NE 09:42:53 10° E
ALOS 2.2 09:37:20 10° N 09:41:58 64° WNW 09:42:44 54° WSW
Cosmos 1484 Rocket 3.2 09:39:44 10° N 09:42:31 46° NNW 09:42:31 46° NNW
Cosmos 1553 Rocket 3.9 09:37:37 10° SSW 09:44:01 76° W 09:50:24 10° N
Cosmos 1408 Rocket 3.7 09:40:16 10° N 09:44:44 73° E 09:49:08 10° SSE
Cosmos 1417 Rocket 4.4 09:39:17 10° S 09:45:30 85° W 09:51:49 10° N
Cosmos 1269 Rocket 4.4 09:43:31 10° S 09:48:43 64° ESE 09:53:57 10° NNE
Cosmos 220 Rocket 3.9 09:51:39 27° NNW 09:53:56 63° WSW 09:58:17 10° S
H-2A R/B 4.2 09:45:04 20° WSW 09:55:30 39° S 10:00:32 10° ESE
SKYMED 2 4.1 09:52:06 10° SSE 09:56:21 61° ENE 10:00:39 10° N
Cosmos 1500 Rocket 4.4 09:52:43 10° N 09:56:57 50° E 10:01:09 10° SSE
NOSS 2-2 (D) 3.3 09:57:00 31° SSW 09:58:28 64° ESE 10:02:04 10° NE
Cosmos 292 Rocket 4.2 09:59:11 38° W 09:59:18 38° WSW 10:03:44 10° S
Genesis I 4.2 09:59:45 30° NW 09:59:45 30° NW 10:02:52 10° NNE
Cosmos 1869 4.0 10:00:41 34° NW 10:00:41 34° NW 10:03:37 10° N
MOS 1 Rocket 3.4 09:55:40 10° SSE 09:59:53 65° ENE 10:04:12 10° N
Cosmos 1842 Rocket 3.4 09:55:39 10° S 10:00:02 86° W 10:04:26 10° N
Cosmos 2221 2.4 09:56:59 10° S 10:01:22 86° W 10:05:46 10° N
ISS -3.3 10:02:06 43° NW 10:02:14 43° NNW 10:05:28 10° NE
H-2A R/B 2.3 10:03:43 10° S 10:07:52 43° W 10:11:59 10° NNW
SJ-12 3.8 10:04:45 10° NNE 10:08:51 87° W 10:12:54 10° SSW
Cosmos 2344 3.8 10:02:48 10° SSW 10:10:20 68° ESE 10:17:59 10° NE
Cosmos 1331 Rocket 4.1 10:06:53 10° NNW 10:11:54 51° WSW 10:16:51 10° S
Cosmos 2278 4.4 10:10:01 20° WNW 10:12:56 31° WSW 10:17:53 10° SSW
SeaSat 1 3.3 10:14:17 10° SSW 10:18:30 28° WSW 10:20:52 20° WNW
CZ-4B R/B 1.1 10:15:19 10° S 10:18:33 79° WSW 10:21:44 10° NNW
SL-27 R/B 2.8 10:15:54 10° S 10:19:22 66° ESE 10:22:54 10° NNE
S3M 4.1 10:21:22 10° SSW 10:27:16 50° WNW 10:33:13 10° N
Envisat 3.6 10:24:57 10° NNE 10:30:00 61° E 10:35:01 10° S
Cosmos 2360 Rocket 3.1 10:25:49 10° NNW 10:31:22 52° ENE 10:36:53 10° SE
ATLAS CENTAUR R/B 1.3 10:29:54 10° NW 10:33:55 70° WSW 10:38:12 10° SSE
CREW DRAGON DEMO-1 DEB 2.8 10:33:52 24° WNW 10:35:20 52° SW 10:38:08 10° SE
Cosmos 1745 Rocket 4.3 10:31:46 10° NNW 10:37:35 43° W 10:43:28 10° SSW
Cosmos 2082 Rocket 3.8 10:37:26 14° WNW 10:39:34 17° NW 10:43:14 10° N
Cosmos 1302 Rocket 4.1 10:35:19 10° NNW 10:40:28 57° WSW 10:45:36 10° S
CZ-4B R/B 3.1 10:39:15 10° N 10:43:35 62° WNW 10:48:00 10° SSW
COSMO-SKYMED 1 3.0 10:40:26 10° SSW 10:44:30 39° W 10:48:35 10° NNW
ERS-2 2.1 10:42:36 10° SSE 10:46:13 88° W 10:49:52 10° NNW
Cosmos 1980 Rocket 3.7 10:44:25 12° WNW 10:46:31 15° W 10:49:36 10° SW
NOSS 2-2 (C) 3.7 10:44:15 12° WSW 10:47:07 37° NW 10:50:38 10° NNE
Meteor 1-4 Rocket 3.2 10:44:07 10° SW 10:47:34 35° WNW 10:51:00 10° N
Cosmos 1862 4.0 10:44:46 10° NNW 10:48:23 31° W 10:51:58 10° SSW
Cosmos 1709 Rocket 4.1 10:44:51 10° NNW 10:51:05 59° W 10:57:19 10° S
Meteor 1-31 Rocket 4.0 10:48:24 10° NNW 10:51:28 22° WNW 10:54:30 10° WSW
Milstar 3 Cent rocket 4.2 10:48:55 10° SSW 10:51:53 16° SSE 10:55:24 10° SE
SAR-Lupe-4 3.5 10:49:12 10° SSE 10:52:45 87° WSW 10:56:21 10° NNW
Cosmos 1743 Rocket 4.1 10:50:45 10° NNW 10:54:52 37° W 10:58:58 10° SSW
Cosmos 1805 Rocket 3.5 10:51:24 10° NNW 10:55:51 70° W 11:00:16 10° S
ADEOS 4.4 10:51:45 10° N 10:56:08 28° WNW 11:00:31 10° WSW
Cosmos 2322 Rocket 2.3 10:51:18 10° NNW 10:56:51 58° WSW 11:02:23 10° S
Cosmos 1933 3.7 10:53:16 10° S 10:57:15 71° E 11:01:16 10° NNE
PSLV R/B 4.0 10:54:04 10° NNE 10:58:09 80° ESE 11:02:07 10° S
Cosmos 1606 3.0 10:55:30 10° SSW 10:59:13 45° WNW 11:02:59 10° N
NOSS 2-2 (E) 4.5 11:00:19 10° W 11:03:10 22° NW 11:06:16 10° NNE
OE (NEXTSAT) 4.3 11:01:25 10° WNW 11:04:55 78° SSW 11:08:23 10° ESE
Cosmos 1689 Rocket 2.1 11:02:39 10° S 11:05:24 51° W 11:08:11 10° NNW
CZ-2C R/B 3.0 11:02:05 10° SSE 11:07:39 80° ENE 11:13:17 10° N
Meteor 1-20 Rocket 4.3 11:06:58 10° N 11:12:37 89° E 11:18:19 10° S
